STARLINK-1714, 46562

Orbit data source: Space-Track

STARLINK-1714, 46562 is a payload satellite owned by SpaceX/Seattle (US) in LEO that was launched on Tue, 06 Oct 2020 UTC via an FALCON 9 launch vehicle from the Air Force Eastern Test Range (AFETR). Payloads include a variety of satellites, spacecraft, and rockets equipped with specific instruments for various scientific and technological missions. These include communications satellites like Starlink; space stations such as the ISS; scientific satellites like the Hubble; Earth observation satellites from companies like Planet Labs, Umbra, and HawkEye 360; GPS; miniature CubeSats for education and research; and military/defense satellites.

Loading next visibility...
STARLINK-1714 details
Identifier
46562, 2020-070AG
Orbit
LEO
Last TLE update14 hours ago
Origin
Flag of USSpaceX/Seattle (US)
ManufacturerSpaceX/Seattle
MissionOperational Commercial Communications
Bus & MotorSTARLINK, Unknown motor
Mass260 kg wet, ~248 kg dry
Launch date (UTC)
2020-10-06 (4 years ago)
Launch vehicle
FALCON 9
Launch site
Air Force Eastern Test Range (AFETR)
Object type
Payload
Rocket body
Debris
Shape & HBRBox + 1 Pan, 8.86 m
Radar Cross Section13.562 m², Large (>1 m²)

Expand to show TLE details & history

TLE from 14 hours ago
0 STARLINK-1714
1 46562U 20070AG  24339.55880672  .00013203  00000-0  90339-3 0  9990
2 46562  53.0544  62.6904 0001977  87.1725 272.9490 15.06407629230128
Epoch: 2024-12-04T13:24Z
Definitive object data (Epoch: 2024-12-04T13:24:40.9Z)
Latitude-0.00005°
Longitude147.66772°
Altitude547.997 km
Speed7.589 km/s
True Right ascension04h 10m 45s
True Declination0° 00' 00"
Sunlit
Object was in full shadow at TLE epoch
Visualization TLE readout
Latitude10.41696°
Longitude152.87898°
Altitude546.931 km
Speed7.591 km/s
Apparent Right ascension07h 35m 19s
Apparent Declination-31° 59' 17"
Sunlit
Object is in full shadow
Visualization observer readout
Local Sidereal Time01:45:16
Azimuth116.902° SE
Elevation-18.161°
Doppler factor1
Orbital elements
Apogee altitude548.828 km
Perigee altitude546.09 km
Semi-major axis6,925.596 km
Eccentricity0.0001977
Inclination53.0544°
RAAN62.6904°
Arg. of periapsis87.1725°
True anomaly272.92637°
Mean anomaly272.949°
Eccentric anomaly272.93769°
Mean motion3.7658 °/min
BSTAR0.00090339
Orbital period95.6 mins
Loading maneuver chart data...
Loading historical data...
Loading historical data...
Loading historical data...
Loading historical data...
Loading historical data...
Loading historical data...
Loading historical data...

STARLINK-1714 Visibility forecast

Observer location: undefined°, undefined

Span
Click to sort rows by Start time (UTC) header in descending order
Start Az.
Max El. time (UTC)
Max El. Az.
Max El.
End time (UTC)
End Az.
4 mins2024-12-05 07:04:58.447Z153.395° SSE2024-12-05 07:06:58.447Z120.859° SE14.641°2024-12-05 07:08:58.447Z91.073° ESE
6 mins2024-12-05 08:42:58.447Z239.147° WSW2024-12-05 08:45:58.447Z352.732° N43.197°2024-12-05 08:48:58.447Z45.452° ENE
4 mins2024-12-05 10:23:58.447Z307.484° NW2024-12-05 10:25:58.447Z343.53° N18.012°2024-12-05 10:27:58.447Z17.838° NNE
4 mins2024-12-05 13:45:58.447Z353.281° N2024-12-05 13:46:58.447Z13.758° NNE21.333°2024-12-05 13:49:58.447Z70.793° E
6 mins2024-12-05 15:24:58.447Z302.932° NW2024-12-05 15:26:58.447Z261.94° W43.08°2024-12-05 15:30:58.447Z138.164° SSE
|